EW3197 Weather Reports


Display with metric or nautical units.
time (UTC)temp
F
wind
direction
speed
MPH
gust
MPH
rain 1hr
in
rain 24hr
in
rain mn
in
humidity
%
barometer
mb
20260509203204 53 51 0.0 1.0 0.02 0.41 0.41 89 1010.8
20260509202704 53 51 0.0 1.0 0.03 0.41 0.41 89 1010.9
20260509202204 53 48 1.0 5.0 0.03 0.41 0.41 89 1010.9
20260509201203 54 35 1.0 3.0 0.03 0.40 0.40 89 1011.0
20260509200704 54 78 1.0 8.0 0.03 0.40 0.40 89 1011.2
20260509200204 54 195 2.0 3.0 0.04 0.40 0.40 89 1011.3
20260509195704 54 196 2.0 7.0 0.04 0.40 0.40 89 1011.4
20260509195205 54 225 1.0 7.0 0.03 0.39 0.39 89 1011.4
20260509193704 54 234 0.0 1.0 0.04 0.39 0.39 90 1011.5
20260509193204 55 234 0.0 2.0 0.05 0.39 0.39 90 1011.5
20260509192704 55 239 1.0 3.0 0.04 0.38 0.38 90 1011.5
20260509192204 54 280 0.0 1.0 0.04 0.38 0.38 90 1011.5
20260509191703 55 280 0.0 1.0 0.04 0.38 0.38 90 1011.4
20260509191204 54 280 0.0 1.0 0.03 0.37 0.37 90 1011.4
20260509190703 54 280 0.0 1.0 0.04 0.37 0.37 90 1011.3
20260509190204 54 280 1.0 3.0 0.03 0.36 0.36 90 1011.4
20260509185704 54 281 0.0 1.0 0.03 0.36 0.36 90 1011.5
20260509185203 54 281 0.0 1.0 0.04 0.36 0.36 90 1011.5
20260509184704 54 281 0.0 0.0 0.03 0.35 0.35 90 1011.5
20260509184204 54 281 0.0 2.0 0.03 0.35 0.35 90 1011.5
20260509183704 54 281 1.0 3.0 0.03 0.35 0.35 90 1011.5
20260509182704 53 281 0.0 1.0 0.03 0.34 0.34 90 1011.3
20260509182204 53 281 0.0 0.0 0.03 0.34 0.34 90 1011.4
20260509181704 53 281 0.0 0.0 0.03 0.34 0.34 90 1011.4
20260509181204 53 281 1.0 2.0 0.03 0.34 0.34 90 1011.5
20260509180703 53 281 1.0 3.0 0.02 0.33 0.33 90 1011.6
20260509180204 53 281 0.0 1.0 0.02 0.33 0.33 90 1011.5
20260509175704 53 281 0.0 1.0 0.02 0.33 0.33 90 1011.5
20260509174704 53 281 0.0 2.0 0.02 0.32 0.32 90 1011.6
20260509173704 52 281 0.0 0.0 0.03 0.32 0.32 90 1011.6
20260509173204 52 281 0.0 0.0 0.03 0.32 0.32 90 1011.6
20260509172204 52 281 0.0 2.0 0.02 0.31 0.31 90 1011.7
20260509171704 52 281 1.0 3.0 0.02 0.31 0.31 90 1011.8
20260509170704 52 281 0.0 2.0 0.02 0.32 0.31 90 1011.9
20260509170204 51 281 0.0 1.0 0.02 0.32 0.31 90 1012.1
20260509165704 51 281 0.0 0.0 0.03 0.32 0.31 90 1012.2
20260509165203 51 281 0.0 1.0 0.02 0.31 0.30 90 1012.3
20260509164705 51 281 0.0 1.0 0.02 0.31 0.30 90 1012.4
20260509164204 50 281 0.0 1.0 0.02 0.31 0.30 90 1012.5
20260509163704 50 281 0.0 1.0 0.01 0.30 0.29 89 1012.6
20260509163204 50 281 0.0 0.0 0.01 0.30 0.29 89 1012.6
20260509162704 50 281 0.0 1.0 0.01 0.30 0.29 90 1012.6
20260509162204 50 281 0.0 0.0 0.01 0.30 0.29 90 1012.5
20260509161704 50 281 1.0 3.0 0.01 0.30 0.29 90 1012.5
20260509161204 50 281 0.0 0.0 0.02 0.30 0.29 90 1012.6
20260509160705 50 281 1.0 2.0 0.02 0.30 0.29 90 1012.6
20260509160204 50 281 0.0 2.0 0.02 0.30 0.29 90 1012.7
20260509155204 49 281 0.0 1.0 0.01 0.29 0.28 90 1012.7
20260509154703 49 281 1.0 2.0 0.01 0.29 0.28 90 1012.7
20260509154204 49 281 0.0 1.0 0.01 0.29 0.28 90 1012.8
20260509153703 49 281 1.0 3.0 0.01 0.29 0.28 90 1012.9
20260509152704 49 281 0.0 2.0 0.01 0.29 0.28 90 1013.0
20260509152204 48 281 0.0 3.0 0.01 0.29 0.28 90 1013.0
20260509151204 49 278 1.0 3.0 0.00 0.28 0.27 90 1013.1
20260509150704 49 278 0.0 2.0 0.01 0.28 0.27 90 1013.1
20260509145705 48 296 0.0 2.0 0.01 0.28 0.27 90 1013.2
20260509145205 48 302 0.0 2.0 0.01 0.28 0.27 90 1013.1
20260509144705 48 302 0.0 2.0 0.01 0.28 0.27 90 1013.1
20260509144205 48 302 0.0 1.0 0.02 0.28 0.27 90 1013.1
20260509143205 47 302 0.0 0.0 0.02 0.28 0.27 90 1013.0
20260509142705 47 302 0.0 1.0 0.02 0.28 0.27 90 1013.1
20260509142205 46 302 0.0 1.0 0.02 0.28 0.27 90 1013.1
20260509141705 46 302 0.0 0.0 0.02 0.28 0.27 90 1013.2
20260509141205 46 302 0.0 0.0 0.02 0.28 0.27 90 1013.2
20260509140705 46 302 0.0 0.0 0.01 0.27 0.26 90 1013.2
20260509140205 45 302 0.0 1.0 0.01 0.27 0.26 90 1013.2
20260509135705 45 302 0.0 2.0 0.01 0.27 0.26 90 1013.1
20260509135205 45 299 0.0 1.0 0.01 0.27 0.26 90 1013.3
20260509134706 45 299 0.0 1.0 0.01 0.27 0.26 90 1013.2
20260509133706 45 299 1.0 3.0 0.00 0.26 0.25 90 1013.4
20260509133205 45 299 1.0 3.0 0.00 0.26 0.25 90 1013.3
20260509132705 45 299 0.0 2.0 0.00 0.26 0.25 90 1013.3
20260509132205 44 299 0.0 1.0 0.00 0.26 0.25 90 1013.3
20260509131705 44 299 0.0 2.0 0.00 0.26 0.25 90 1013.3
20260509131205 44 299 0.0 2.0 0.00 0.26 0.25 90 1013.5
20260509130705 44 299 0.0 1.0 0.00 0.26 0.25 90 1013.6
20260509130205 43 299 0.0 1.0 0.01 0.26 0.25 90 1013.7
20260509125705 43 299 1.0 2.0 0.01 0.26 0.25 90 1013.7
20260509125204 43 299 0.0 2.0 0.01 0.26 0.25 90 1013.7
20260509124706 43 299 1.0 2.0 0.01 0.26 0.25 90 1013.8
20260509124205 43 299 0.0 0.0 0.01 0.26 0.25 90 1013.7
20260509123705 43 299 0.0 0.0 0.01 0.26 0.25 90 1013.7
20260509122705 43 299 0.0 3.0 0.01 0.26 0.25 90 1013.7
20260509122205 43 299 0.0 3.0 0.01 0.26 0.25 90 1013.8
20260509121704 42 299 0.0 0.0 0.01 0.26 0.25 90 1013.9
20260509121205 42 299 0.0 1.0 0.01 0.26 0.25 90 1013.8
20260509120705 42 299 1.0 2.0 0.01 0.26 0.25 89 1013.8
20260509120205 42 299 1.0 3.0 0.00 0.25 0.24 89 1013.8
20260509115704 42 299 0.0 3.0 0.00 0.25 0.24 89 1013.8
20260509115204 42 299 0.0 0.0 0.01 0.25 0.24 89 1013.8
20260509114705 42 299 1.0 2.0 0.01 0.25 0.24 89 1013.9
20260509114205 42 299 0.0 1.0 0.02 0.25 0.24 89 1014.0
20260509113705 42 299 0.0 1.0 0.02 0.25 0.24 89 1014.0
20260509113204 41 299 0.0 0.0 0.03 0.25 0.24 89 1013.9
20260509112705 41 299 0.0 2.0 0.03 0.25 0.24 89 1014.0
20260509112205 41 299 0.0 0.0 0.03 0.25 0.24 89 1014.0
20260509111705 41 299 2.0 3.0 0.04 0.25 0.24 89 1014.0
20260509111205 41 298 1.0 2.0 0.05 0.25 0.24 89 1014.0
20260509110705 41 298 1.0 3.0 0.05 0.25 0.24 89 1013.9
20260509110205 41 298 1.0 3.0 0.06 0.25 0.24 89 1014.0
20260509105705 41 297 2.0 3.0 0.06 0.25 0.24 89 1013.9
20260509105205 41 209 1.0 3.0 0.06 0.24 0.23 89 1014.0
20260509104204 41 200 1.0 3.0 0.07 0.23 0.22 89 1014.2
20260509103705 40 199 0.0 0.0 0.09 0.23 0.22 89 1014.2
20260509103204 40 199 0.0 0.0 0.09 0.22 0.21 89 1014.3
20260509102205 40 199 0.0 0.0 0.11 0.22 0.21 89 1014.4
20260509101705 40 199 0.0 0.0 0.10 0.21 0.20 89 1014.5
20260509101205 40 199 0.0 0.0 0.10 0.20 0.19 89 1014.5
20260509100205 40 199 0.0 0.0 0.10 0.19 0.18 88 1014.4
20260509095705 40 199 0.0 0.0 0.10 0.19 0.18 88 1014.5
20260509095205 40 199 0.0 0.0 0.10 0.18 0.17 88 1014.4
20260509094705 40 199 0.0 0.0 0.09 0.17 0.16 88 1014.3
20260509094204 40 199 0.0 0.0 0.09 0.16 0.15 88 1014.3
20260509093705 40 199 0.0 0.0 0.07 0.14 0.13 88 1014.4
20260509093205 40 199 0.0 0.0 0.07 0.13 0.12 88 1014.3
20260509092705 40 199 0.0 0.0 0.07 0.12 0.11 88 1014.3
20260509092205 40 199 0.0 0.0 0.06 0.11 0.10 88 1014.3
20260509091705 40 199 0.0 0.0 0.07 0.11 0.10 88 1014.3
20260509091204 39 199 0.0 0.0 0.07 0.10 0.09 88 1014.3
20260509090705 39 199 0.0 0.0 0.07 0.10 0.09 88 1014.2
20260509090205 39 199 0.0 0.0 0.07 0.09 0.08 88 1014.2
20260509085705 39 199 0.0 0.0 0.07 0.09 0.08 87 1014.0
20260509085205 39 199 0.0 0.0 0.07 0.08 0.07 87 1014.0
20260509084705 39 199 0.0 0.0 0.07 0.08 0.07 87 1014.2
20260509084205 39 199 0.0 0.0 0.06 0.07 0.06 87 1014.3
20260509083705 39 199 0.0 0.0 0.06 0.07 0.06 87 1014.3
20260509082705 39 199 0.0 0.0 0.04 0.05 0.04 87 1014.5
20260509082205 39 199 0.0 0.0 0.04 0.05 0.04 87 1014.5
20260509081704 39 199 0.0 0.0 0.03 0.04 0.03 87 1014.4
20260509081205 39 199 0.0 0.0 0.02 0.03 0.02 87 1014.3
20260509080705 39 199 0.0 0.0 0.02 0.03 0.02 86 1014.3
20260509080204 39 199 0.0 0.0 0.01 0.02 0.01 86 1014.2
20260509075705 38 199 0.0 0.0 0.01 0.02 0.01 86 1014.1
20260509075204 39 199 0.0 0.0 0.00 0.01 0.00 86 1013.9
20260509074704 38 199 0.0 0.0 0.00 0.01 0.00 87 1013.8
20260509074205 38 199 0.0 0.0 0.00 0.01 0.00 87 1013.7
20260509073705 38 199 0.0 0.0 0.00 0.01 0.00 87 1013.6
20260509073205 38 199 0.0 0.0 0.00 0.01 0.00 87 1013.4
20260509072704 38 199 0.0 0.0 0.00 0.01 0.00 87 1013.5
20260509072205 38 199 0.0 0.0 0.00 0.01 0.00 87 1013.6
20260509071705 38 199 0.0 0.0 0.00 0.01 0.00 87 1013.6
20260509071205 38 199 0.0 0.0 0.00 0.01 0.00 87 1013.5
20260509070204 37 199 0.0 0.0 0.00 0.01 0.00 87 1013.8
20260509065704 37 199 0.0 0.0 0.00 0.01 0.00 87 1013.6
20260509064705 37 199 0.0 0.0 0.00 0.01 0.00 87 1013.7
20260509064204 37 199 0.0 0.0 0.00 0.01 0.00 87 1013.8
20260509063704 36 199 0.0 0.0 0.00 0.01 0.00 87 1013.9
20260509063204 36 199 0.0 0.0 0.00 0.01 0.00 87 1013.9
20260509062704 36 199 0.0 0.0 0.00 0.01 0.00 87 1013.9
20260509061704 35 199 0.0 0.0 0.00 0.01 0.00 87 1014.2
20260509061204 35 199 0.0 0.0 0.00 0.01 0.00 87 1014.1
20260509060703 35 199 0.0 0.0 0.00 0.01 0.00 87 1014.1
20260509060204 35 199 0.0 0.0 0.00 0.01 0.00 87 1014.1
20260509055704 35 199 0.0 0.0 0.00 0.01 0.00 86 1014.0
20260509055204 35 199 0.0 0.0 0.00 0.01 0.00 86 1014.1
20260509054704 35 199 0.0 0.0 0.00 0.01 0.00 86 1014.1
20260509054204 35 199 0.0 0.0 0.00 0.01 0.00 86 1014.2
20260509053704 35 199 0.0 0.0 0.00 0.01 0.00 86 1014.2
20260509053204 35 199 0.0 0.0 0.00 0.01 0.00 86 1014.3
20260509052704 35 199 0.0 0.0 0.00 0.01 0.00 86 1014.4
20260509052204 35 199 0.0 0.0 0.00 0.01 0.00 86 1014.3
20260509051704 35 199 0.0 0.0 0.00 0.01 0.00 86 1014.3
20260509051204 35 199 0.0 0.0 0.00 0.01 0.00 86 1014.3
20260509050204 35 199 0.0 0.0 0.00 0.01 0.00 86 1014.3
20260509045705 35 199 0.0 0.0 0.00 0.01 0.00 86 1014.3
20260509045204 35 199 0.0 0.0 0.00 0.01 0.00 86 1014.3
20260509044204 35 199 0.0 0.0 0.00 0.01 0.00 85 1014.3
20260509043704 36 199 0.0 0.0 0.00 0.01 0.00 86 1014.3
20260509043204 36 199 0.0 0.0 0.00 0.01 0.00 86 1014.3
20260509042704 36 199 0.0 0.0 0.00 0.01 0.00 86 1014.2
20260509042205 36 199 0.0 0.0 0.00 0.01 0.00 85 1014.0
20260509041704 35 199 0.0 0.0 0.00 0.01 0.00 85 1014.0
20260509041204 35 199 0.0 0.0 0.00 0.01 0.00 85 1014.1
20260509040704 36 199 0.0 0.0 0.00 0.01 0.00 85 1014.1
20260509035704 36 199 0.0 0.0 0.00 0.01 0.01 85 1014.0
20260509034704 36 199 0.0 0.0 0.00 0.01 0.01 84 1014.0
20260509034204 37 199 0.0 0.0 0.00 0.01 0.01 85 1014.0
20260509033704 36 199 0.0 0.0 0.00 0.01 0.01 84 1014.1
20260509032704 37 199 0.0 0.0 0.00 0.01 0.01 84 1014.1
20260509032204 37 199 0.0 0.0 0.00 0.01 0.01 84 1014.0
20260509031707 37 199 0.0 0.0 0.00 0.01 0.01 84 1014.0
20260509031204 38 199 0.0 0.0 0.00 0.01 0.01 84 1014.1
20260509030704 38 199 0.0 0.0 0.00 0.01 0.01 83 1014.0
20260509030204 38 199 0.0 0.0 0.00 0.01 0.01 83 1013.9
20260509025704 38 199 0.0 0.0 0.00 0.01 0.01 83 1013.9
20260509025204 38 199 0.0 0.0 0.00 0.01 0.01 83 1013.8
20260509024206 39 199 0.0 0.0 0.00 0.01 0.01 83 1013.7
20260509023704 38 199 0.0 0.0 0.00 0.01 0.01 83 1013.7
20260509022704 39 199 0.0 0.0 0.00 0.01 0.01 82 1013.7
20260509022204 39 199 0.0 0.0 0.00 0.01 0.01 82 1013.7
20260509021704 39 199 0.0 0.0 0.00 0.01 0.01 82 1013.6
20260509021204 39 199 0.0 0.0 0.00 0.01 0.01 81 1013.5
20260509020704 39 199 0.0 0.0 0.00 0.01 0.01 81 1013.5
20260509020204 40 199 0.0 0.0 0.00 0.01 0.01 81 1013.5
20260509015704 40 199 0.0 0.0 0.00 0.01 0.01 81 1013.4
20260509015204 40 199 0.0 0.0 0.00 0.01 0.01 81 1013.3
20260509014704 40 199 0.0 0.0 0.00 0.01 0.01 80 1013.2
20260509014204 40 199 0.0 0.0 0.00 0.01 0.01 80 1013.2
20260509013704 40 199 0.0 0.0 0.00 0.01 0.01 80 1013.1
20260509012704 41 199 0.0 0.0 0.00 0.01 0.01 79 1013.0
20260509012203 41 199 0.0 0.0 0.00 0.01 0.01 79 1013.0
20260509011704 41 199 0.0 0.0 0.00 0.01 0.01 79 1012.9
20260509011204 42 199 0.0 0.0 0.00 0.01 0.01 78 1012.9
20260509010704 42 199 0.0 0.0 0.00 0.01 0.01 78 1012.8
20260509005704 43 199 0.0 0.0 0.00 0.01 0.01 77 1012.5
20260509005204 43 199 0.0 0.0 0.00 0.01 0.01 76 1012.4
20260509003204 45 199 0.0 0.0 0.00 0.01 0.01 74 1012.2
20260509002704 45 199 0.0 0.0 0.00 0.01 0.01 72 1012.1
20260509002204 46 199 0.0 0.0 0.00 0.01 0.01 71 1012.1
20260509001204 47 199 0.0 0.0 0.00 0.01 0.01 68 1012.0
20260509000704 48 199 0.0 0.0 0.00 0.01 0.01 66 1011.9
20260508235705 49 199 0.0 0.0 0.00 0.01 0.01 64 1011.8
20260508235204 50 281 0.0 0.0 0.00 0.01 0.01 61 1011.8
20260508234704 51 286 0.0 0.0 0.00 0.01 0.01 58 1011.8
20260508234204 52 286 0.0 1.0 0.00 0.01 0.01 56 1011.7
20260508233704 52 286 0.0 1.0 0.00 0.01 0.01 55 1011.6
20260508233204 52 286 1.0 2.0 0.00 0.01 0.01 53 1011.4
20260508232704 53 286 1.0 3.0 0.00 0.01 0.01 52 1011.4
20260508232204 53 288 1.0 2.0 0.00 0.01 0.01 52 1011.3
20260508231704 53 288 2.0 6.0 0.00 0.01 0.01 51 1011.3
20260508231204 53 233 2.0 7.0 0.00 0.01 0.01 51 1011.4
20260508230704 53 298 2.0 9.0 0.00 0.01 0.01 49 1011.4
20260508230204 54 313 3.0 7.0 0.00 0.01 0.01 51 1011.3
20260508225204 54 318 1.0 9.0 0.00 0.01 0.01 50 1011.3
20260508224704 54 314 2.0 6.0 0.00 0.01 0.01 52 1011.4
20260508224204 54 320 2.0 8.0 0.00 0.01 0.01 50 1011.4
20260508223704 55 216 2.0 6.0 0.00 0.01 0.01 49 1011.3
20260508223204 55 233 2.0 6.0 0.00 0.01 0.01 50 1011.3
20260508222205 55 285 2.0 6.0 0.00 0.01 0.01 48 1011.2
20260508221704 55 278 3.0 7.0 0.00 0.01 0.01 49 1011.2
20260508221204 55 249 2.0 10.0 0.00 0.01 0.01 49 1011.2
20260508220704 55 297 3.0 12.0 0.00 0.01 0.01 51 1011.2
20260508220203 55 279 3.0 12.0 0.00 0.01 0.01 51 1011.3
20260508215704 56 242 4.0 8.0 0.00 0.01 0.01 50 1011.2
20260508214703 56 235 3.0 8.0 0.00 0.01 0.01 51 1011.1
20260508212704 56 226 4.0 10.0 0.00 0.01 0.01 50 1011.2
20260508212204 57 325 3.0 10.0 0.00 0.01 0.01 49 1011.2
20260508210704 56 215 3.0 9.0 0.00 0.01 0.01 53 1011.2
20260508205704 57 265 2.0 5.0 0.00 0.01 0.01 55 1011.2
20260508205204 56 216 2.0 5.0 0.00 0.01 0.01 56 1011.3
20260508204704 55 208 3.0 7.0 0.00 0.01 0.01 56 1011.3
20260508204204 55 225 2.0 7.0 0.00 0.01 0.01 58 1011.3
20260508203705 55 243 3.0 8.0 0.00 0.01 0.01 54 1011.4